Regional Weather Roundup
Issued by NWS

Home | Current Version | Previous Version | Graphics & Text | Print | Product List | Glossary On
Versions: 1 2 3 4 5 6 7 8 9 10 11 12 13 14 15 16 17 18 19 20 21 22 23 24 25 26 27 28 29 30 31 32 33 34 35 36 37 38 39 40 41 42 43 44 45 46 47 48 49 50
000
ASUS43 KBIS 010420
RWRND

NORTH DAKOTA REGIONAL WEATHER ROUNDUP
NATIONAL WEATHER SERVICE BISMARCK ND
1000 PM CST SAT JAN 31 2015

NOTE: "FAIR" INDICATES FEW OR NO CLOUDS BELOW 12,000 FEET WITH NO
SIGNIFICANT WEATHER AND/OR OBSTRUCTIONS TO VISIBILITY.


NDZ001>003-009>011-017-010500-
NORTHWEST NORTH DAKOTA

CITY           SKY/WX    TMP DP  RH WIND       PRES   REMARKS
WILLISTON      CLOUDY    -2 -10  69 NE9       30.46R WCI -18
MINOT          CLOUDY    -7 -15  68 N15       30.47R WCI -28
MINOT AFB      PTCLDY    -8 -17  63 N13       30.49R WCI -28
$$

NDZ018>021-031>035-040>046-010500-
SOUTHWEST NORTH DAKOTA

CITY           SKY/WX    TMP DP  RH WIND       PRES   REMARKS
BISMARCK       LGT SNOW  -1  -7  75 NE16G23   30.40R WCI -21
DICKINSON      LGT SNOW  -1  -6  79 NE14      30.29R WCI -20
GARRISON         N/A     -2  -9  72 NE9       30.41S WCI -18
HETTINGER ARPT LGT SNOW   3  -1  83 NE14      30.25R VSB 1   WCI -15
$$

NDZ004>008-012>016-024-026-027-054-010500-
NORTHEAST NORTH DAKOTA

CITY           SKY/WX    TMP DP  RH WIND       PRES   REMARKS
GRAND FORKS    PTCLDY    -7 -15  68 N15       30.51S WCI -28
GRND FRKS AFB  PTCLDY    -8 -17  63 N16       30.52R WCI -30
DEVILS LAKE    MOCLDY    -9 -20  59 NE13      30.46R WCI -30
$$

NDZ022-023-025-028>030-036>039-047>053-010500-
SOUTHEAST NORTH DAKOTA

CITY           SKY/WX    TMP DP  RH WIND       PRES   REMARKS
FARGO          CLOUDY    -1 -10  65 N23       30.41R WCI -25
JAMESTOWN      CLOUDY    -3 -11  68 N21       30.39R WCI -26
$$




USA.gov is the U.S. government's official web portal to all federal, state and local government web resources and services.